Location: Warszawa
(52.2463°N, 21.0173°E)
Time: 22:35:33
(UTC+02:00)

ISS - Visible Passes

Search period start: 20 July 2018 00:00
Search period end: 30 July 2018 00:00
Orbit: 402 x 408 km, 51.6° (Epoch: 20 July)

Date Brightness Start Highest point End Pass type
(mag) Time Alt. Az. Time Alt. Az. Time Alt. Az.
20 Jul -4.0 00:40:48 10° W 00:44:05 80° S 00:47:24 10° E visible
20 Jul -3.9 02:17:16 10° W 02:20:31 61° SSW 02:23:47 10° ESE visible
20 Jul -2.9 22:12:57 10° SSW 22:15:48 27° SSE 22:18:39 10° E visible
20 Jul -4.0 23:48:43 10° WSW 23:52:00 72° S 23:55:17 10° E visible
21 Jul -4.0 01:25:09 10° W 01:28:26 74° S 01:31:44 10° ESE visible
21 Jul -3.0 03:01:45 10° W 03:04:41 29° SSW 03:07:35 10° SSE visible
21 Jul -3.8 22:56:39 10° WSW 22:59:54 58° SSE 23:03:09 10° E visible
22 Jul -4.0 00:33:02 10° W 00:36:19 81° S 00:39:38 10° E visible
22 Jul -3.5 02:09:32 10° W 02:12:40 41° SSW 02:15:48 10° SE visible
22 Jul -1.8 03:47:22 10° WSW 03:48:30 11° SW 03:49:38 10° SSW visible
22 Jul -3.5 22:04:41 10° SW 22:07:50 43° SSE 22:10:59 10° E visible
22 Jul -4.0 23:40:53 10° W 23:44:11 82° S 23:47:30 10° E visible
23 Jul -3.8 01:17:22 10° W 01:20:36 55° SSW 01:20:49 54° S visible
23 Jul -4.0 22:48:45 10° WSW 22:52:02 76° S 22:55:20 10° E visible
24 Jul -4.0 00:25:12 10° W 00:28:29 70° S 00:29:05 53° SE visible
24 Jul -3.8 21:56:39 10° WSW 21:59:54 63° SSE 22:03:10 10° E visible
24 Jul -4.0 23:33:03 10° W 23:36:20 79° S 23:38:04 26° ESE visible
25 Jul -1.9 01:09:34 10° W 01:10:40 18° W 01:10:40 18° W visible
25 Jul -3.9 22:40:52 10° W 22:44:10 83° S 22:47:15 11° E visible
26 Jul -3.2 00:17:21 10° W 00:19:53 41° WSW 00:19:53 41° WSW visible
26 Jul -3.9 21:48:41 10° W 21:51:58 79° S 21:55:16 10° E visible
26 Jul -3.9 23:25:09 10° W 23:28:24 65° SSW 23:29:10 46° SE visible
27 Jul -3.9 22:32:57 10° W 22:36:14 76° S 22:38:31 18° ESE visible
28 Jul -2.1 00:09:30 10° W 00:11:08 23° WSW 00:11:08 23° WSW visible
28 Jul -3.9 21:40:44 10° W 21:44:01 82° S 21:47:18 10° E visible
28 Jul -3.5 23:17:13 10° W 23:20:22 45° SSW 23:20:31 44° SSW visible
29 Jul -3.8 22:24:58 10° W 22:28:13 59° SSW 22:29:55 25° SE visible
